RADUGA 1 1 08513U 75123A 21017.09321050 -.00000048 00000-0 00000-0 0 9999 2 08513 7.7934 295.5869 0004957 202.2872 82.8310 1.00294545174982 RADUGA 2 1 09416U 76092A 21016.78313318 -.00000196 00000-0 00000-0 0 9995 2 09416 8.4463 297.4603 0028701 344.3617 202.8699 1.00276518109516 RADUGA 3 1 10159U 77071A 21016.97022444 .00000151 00000-0 00000-0 0 9997 2 10159 9.0460 299.8628 0006871 228.5384 334.6369 1.00244381157218 RADUGA 4 1 10987U 78073A 21017.78868876 -.00000268 00000-0 00000+0 0 9995 2 10987 9.6456 303.0372 0010798 350.3990 201.6500 1.00338150 99776 RADUGA 5 1 11343U 79035A 21017.09619715 -.00000079 00000-0 00000-0 0 9992 2 11343 10.0820 305.5663 0004472 127.9572 152.4583 1.00247142109529 RADUGA 6 1 11708U 80016A 21016.88714403 -.00000341 00000-0 00000-0 0 9996 2 11708 10.4135 308.3608 0000193 93.4515 141.3750 1.00282266102338 RADUGA 7 1 12003U 80081A 21017.63882703 .00000083 00000-0 00000-0 0 9992 2 12003 10.5751 310.1597 0009120 267.0244 315.9197 1.00288350103488 RADUGA 8 1 12351U 81027A 21017.34023598 .00000121 00000-0 00000-0 0 9999 2 12351 10.8999 310.8068 0081463 212.7960 285.9797 1.00387640102701 RADUGA 9 1 12618U 81069A 21017.27275913 -.00000359 00000-0 00000-0 0 9997 2 12618 11.0864 313.4465 0003236 76.2287 299.6463 1.00275742 27525 RADUGA 10 1 12897U 81102A 21017.08839926 -.00000167 00000-0 00000-0 0 9990 2 12897 11.1604 314.3348 0003260 144.4988 132.9155 1.00256764 97516 RADUGA 11 1 13669U 82113A 21016.82245587 -.00000131 00000-0 00000-0 0 9997 2 13669 13.0291 326.9943 0036623 242.5219 325.0836 0.97708903102210 RADUGA 12 1 13974U 83028A 21017.08805201 -.00000134 00000-0 00000-0 0 9999 2 13974 12.1630 323.5028 0003948 45.1900 217.5532 1.00294702149559 RADUGA 13 1 14307U 83088A 21017.24056900 -.00000151 00000-0 00000-0 0 9997 2 14307 13.2421 328.5844 0018859 25.3239 162.6837 0.98174516 99539 RADUGA 14 1 14725U 84016A 21017.40902191 -.00000122 00000-0 00000-0 0 9991 2 14725 12.3045 326.9898 0003965 77.8524 297.1498 1.00245978 98280 RADUGA 15 1 15057U 84063A 21017.04106012 .00000131 00000-0 00000-0 0 9999 2 15057 12.4073 327.9753 0003367 105.2011 90.8822 1.00209299121276 RADUGA 16 1 15946U 85070A 21017.42830736 -.00000269 00000-0 00000-0 0 9997 2 15946 12.7818 332.4262 0001993 29.7431 231.4234 1.00237108102402 RADUGA 17 1 16250U 85107A 21017.62522150 -.00000098 00000-0 00000+0 0 9996 2 16250 12.8796 333.7416 0009568 167.1124 6.8466 1.00191391132007 RADUGA 18 1 16497U 86007A 21017.47593198 .00000031 00000-0 00000-0 0 9999 2 16497 13.6446 336.3182 0072450 149.3416 216.7348 0.98810829126336 RADUGA 19 1 17046U 86082A 21017.54353994 -.00000078 00000-0 00000+0 0 9990 2 17046 13.9883 340.0853 0010193 118.9546 246.3389 0.98460161123492 RADUGA 20 1 17611U 87028A 21017.37700625 -.00000096 00000-0 00000-0 0 9998 2 17611 15.9411 343.6482 0027353 118.2633 67.8182 0.95961305119341 RADUGA 21 1 18631U 87100A 21017.32277854 -.00000301 00000-0 00000-0 0 9999 2 18631 14.0376 341.2640 0003211 55.4528 146.2865 1.00271534121265 RADUGA 22 1 19596U 88095A 21017.09632929 .00000070 00000-0 00000-0 0 9998 2 19596 13.9224 345.3292 0004722 84.2000 96.2996 1.00304476101828 RADUGA 23 1 19928U 89030A 21016.84303427 -.00000378 00000-0 00000-0 0 9999 2 19928 14.0233 347.0818 0017951 143.9938 48.2126 1.00278074115026 RADUGA 1-1 1 20083U 89048A 21017.77636972 -.00000181 00000-0 00000+0 0 9990 2 20083 14.7115 349.9975 0020900 92.0753 74.3579 0.98708775111758 RADUGA 24 1 20367U 89098A 21017.54668045 .00000088 00000-0 00000-0 0 9997 2 20367 14.5429 349.4552 0002373 17.7330 355.1365 1.00304348113155 RADUGA 25 1 20499U 90016A 21017.56375753 -.00000208 00000-0 00000-0 0 9993 2 20499 14.2988 350.0169 0002393 77.9966 160.6119 1.00377263113089 RADUGA 26 1 21016U 90112A 21017.41242411 -.00000291 00000-0 00000-0 0 9996 2 21016 14.5239 353.2270 0007784 49.9881 317.0581 1.00294165110446 RADUGA 1-2 1 21038U 90116A 21017.48020654 -.00000123 00000-0 00000-0 0 9998 2 21038 14.5616 353.3144 0008367 63.7763 307.7415 1.00330585 27526 RADUGA 27 1 21132U 91014A 21017.78625788 -.00000361 00000-0 00000+0 0 9996 2 21132 15.0804 353.0780 0005076 31.2018 143.4918 1.00295378109485 RADUGA 28 1 21821U 91087A 21017.22802748 .00000118 00000-0 00000-0 0 9993 2 21821 14.7511 356.6026 0005620 76.1783 156.2550 1.00275515106498 RADUGA 29 1 22557U 93013A 21017.02106494 -.00000358 00000-0 00000-0 0 9991 2 22557 14.8371 0.7402 0006209 70.5023 162.1119 1.00187757101856 RADUGA 30 1 22836U 93062A 21017.47915972 -.00000060 00000-0 00000-0 0 9993 2 22836 14.8283 2.6618 0004763 337.0251 19.2106 1.00269089 26173 RADUGA 1-3 1 22981U 94008A 21017.54903581 .00000025 00000-0 00000-0 0 9996 2 22981 14.8735 3.8309 0004015 27.6675 343.3575 1.00225744 98662 RADUGA 31 1 23010U 94012A 21017.41425608 -.00000348 00000-0 00000-0 0 9999 2 23010 14.8429 3.8118 0005690 43.0667 323.3463 1.00292903 98538 RADUGA 32 1 23448U 94087A 21017.47942142 -.00000070 00000-0 00000-0 0 9991 2 23448 14.7510 6.4716 0002806 233.0610 120.5757 1.00268276113055 RADUGA 1-4 1 25642U 99010A 21017.41469226 -.00000359 00000-0 00000-0 0 9991 2 25642 14.9899 18.2718 0003998 300.9467 53.0485 1.00319810 80125 RADUGA 1-5 1 26477U 00049A 21017.48212574 -.00000209 00000-0 00000-0 0 9995 2 26477 12.8187 22.3230 0006076 12.9555 339.1942 1.00337672 74598 RADUGA 1-6 1 26936U 01045A 21017.41835616 -.00000147 00000-0 00000-0 0 9994 2 26936 12.8051 28.3866 0012518 154.7440 209.3083 0.97744903 69283 RADUGA 1-7 1 28194U 04010A 21017.25049428 .00000080 00000-0 00000-0 0 9992 2 28194 11.3687 35.4157 0002645 286.6216 261.4285 1.00271107 61582 RADUGA 1M-1 1 32373U 07058A 21017.32518802 -.00000041 00000-0 00000-0 0 9994 2 32373 5.7717 67.3688 0004018 298.8186 244.9584 0.99398739 32749 RADUGA 1-8 1 34264U 09010A 21017.79547442 .00000109 00000-0 00000+0 0 9991 2 34264 8.2263 57.9741 0014825 340.3069 221.6460 0.99822028 43435 RADUGA 1M-2 1 36358U 10002A 21016.97982042 -.00000187 00000-0 00000+0 0 9995 2 36358 0.0531 241.8967 0002729 80.6021 231.8301 1.00272137 40184 RADUGA 1M-3 1 39375U 13062A 21017.54406336 .00000153 00000-0 00000+0 0 9999 2 39375 0.9614 95.5742 0006909 313.5137 298.9004 1.00271065 26303